Triuchirapalli, India

7:19 PM IST on November 24, 2017 (GMT +0530)
Tiruchirappalli

Weather History for VOTR - February, 2013

Change the Weather History Date:

Wednesday, February 13, 2013

  Actual Average Record
Temperature  
Mean Temperature 82 °F -  
Max Temperature 89 °F 89 °F 93 °F (1999)
Min Temperature 75 °F 74 °F 60 °F (2011)
Cooling Degree Days 17    
Growing Degree Days 32 (Base 50)    
Moisture  
Dew Point 69 °F    
Average Humidity 67    
Maximum Humidity 78    
Minimum Humidity 42    
Precipitation  
Precipitation 0.00 in - - ()
Sea Level Pressure  
Sea Level Pressure 29.86 in    
Wind  
Wind Speed 8 mph ()    
Max Wind Speed 14 mph    
Max Gust Speed -    
Visibility 2.9 miles    
Events      
Averages and records for this station are not official NWS values.
T = Trace of Precipitation, MM = Missing Value Source: Averaged Metar Reports

Daily Weather History Graph

Daily Weather History Graph

Search for Another Location

Airport or City:

Trip Planner

Search our weather history database for the weather conditions in past years. The results will help you decide how hot, cold, wet, or windy it might be!

Date:

Astronomy

Feb. 13, 2013 Rise Set
Actual Time 6:36 AM IST 6:22 PM IST
Civil Twilight 6:14 AM IST 6:44 PM IST
Nautical Twilight 5:49 AM IST 7:09 PM IST
Astronomical Twilight 5:24 AM IST 7:34 PM IST
Moon 8:35 AM IST (2/13) 9:05 PM IST (2/13)
Length of Visible Light 12h 29m
Length of Day
11h 46m
Waxing Crescent, 10% of the Moon is Illuminated
Feb 13
Waxing Crescent
Feb 18
First Quarter
Feb 26
Full
Mar 5
Last Quarter
Mar 12
New

Hourly Weather History & Observations

Time (IST) Temp. Heat Index Dew Point Humidity Pressure Visibility Wind Dir Wind Speed Gust Speed Precip Events Conditions
12:10 AM 77.0 °F - 68.0 °F 74% 29.89 in 2.5 mi ENE 6.9 mph - N/A   Haze
12:40 AM 77.0 °F - 68.0 °F 74% 29.89 in 2.5 mi NE 9.2 mph - N/A   Haze
1:10 AM 77.0 °F - 68.0 °F 74% 29.86 in 2.5 mi NE 9.2 mph - N/A   Haze
1:40 AM 75.2 °F - 68.0 °F 78% 29.86 in 2.5 mi NE 11.5 mph - N/A   Haze
2:10 AM 75.2 °F - 68.0 °F 78% 29.86 in 2.5 mi ENE 9.2 mph - N/A   Haze
2:30 AM 76 °F - 69 °F 74% 29.84 in 1 mi NE 6.9 mph - -   Haze
2:40 AM 75.2 °F - 68.0 °F 78% 29.83 in 2.5 mi NE 6.9 mph - N/A   Haze
3:10 AM 75.2 °F - 68.0 °F 78% 29.83 in 2.5 mi NE 9.2 mph - N/A   Haze
3:40 AM 75.2 °F - 68.0 °F 78% 29.83 in 2.5 mi NE 9.2 mph - N/A   Haze
4:10 AM 75.2 °F - 68.0 °F 78% 29.83 in 2.5 mi NE 6.9 mph - N/A   Haze
4:40 AM 75.2 °F - 68.0 °F 78% 29.83 in 2.5 mi NNE 6.9 mph - N/A   Haze
5:10 AM 75.2 °F - 68.0 °F 78% 29.86 in 2.5 mi NE 4.6 mph - N/A   Haze
5:30 AM 75 °F - 68 °F 73% 29.86 in 1 mi NE 5.8 mph - -   Haze
5:40 AM 75.2 °F - 68.0 °F 78% 29.86 in 2.5 mi NE 5.8 mph - N/A   Haze
6:40 AM 75.2 °F - 68.0 °F 78% 29.86 in 1.9 mi NNE 9.2 mph - N/A   Haze
7:10 AM 77.0 °F - 68.0 °F 74% 29.89 in 1.9 mi NE 9.2 mph - N/A   Haze
7:40 AM 77.0 °F - 68.0 °F 74% 29.89 in 1.9 mi NE 9.2 mph - N/A   Haze
8:10 AM 77.0 °F - 68.0 °F 74% 29.89 in 2.5 mi NE 9.2 mph - N/A   Haze
8:30 AM 78 °F - 69 °F 66% 29.90 in 2 mi NE 11.5 mph - -   Haze
8:40 AM 78.8 °F - 69.8 °F 74% 29.89 in 2.5 mi ENE 9.2 mph - N/A   Haze
9:40 AM 80.6 °F 83.9 °F 69.8 °F 70% 29.92 in 3.1 mi NNE 13.8 mph - N/A   Haze
10:10 AM 82.4 °F 85.4 °F 68.0 °F 62% 29.92 in 3.1 mi NNE 13.8 mph - N/A   Haze
10:40 AM 84.2 °F 87.3 °F 68.0 °F 58% 29.92 in 3.7 mi NE 11.5 mph - N/A   Scattered Clouds
11:10 AM 84.2 °F 87.3 °F 68.0 °F 58% 29.92 in 3.7 mi NE 11.5 mph - N/A   Scattered Clouds
11:30 AM 87 °F - 68 °F 44% 29.89 in 2 mi ENE 9.2 mph - -   Haze
11:40 AM 86.0 °F 89.4 °F 68.0 °F 55% 29.89 in 3.7 mi NE 9.2 mph - N/A   Scattered Clouds
12:10 PM 86.0 °F 90.4 °F 69.8 °F 58% 29.89 in 3.7 mi ENE 10.4 mph - N/A   Scattered Clouds
12:40 PM 86.0 °F 90.4 °F 69.8 °F 58% 29.86 in 3.7 mi NE 11.5 mph - N/A   Scattered Clouds
1:10 PM 86.0 °F 89.4 °F 68.0 °F 55% 29.86 in 3.7 mi ENE 11.5 mph - N/A   Scattered Clouds
1:40 PM 87.8 °F 91.4 °F 68.0 °F 52% 29.83 in 3.7 mi NE 11.5 mph - N/A   Scattered Clouds
2:10 PM 87.8 °F 91.4 °F 68.0 °F 52% 29.83 in 3.7 mi ENE 12.7 mph - N/A   Scattered Clouds
2:30 PM 88 °F - 68 °F 42% 29.81 in 2 mi ENE 11.5 mph - -   Haze
2:40 PM 87.8 °F 92.6 °F 69.8 °F 55% 29.80 in 3.7 mi ENE 10.4 mph - N/A   Scattered Clouds
3:10 PM 87.8 °F 92.6 °F 69.8 °F 55% 29.80 in 3.7 mi ENE 11.5 mph - N/A   Scattered Clouds
3:40 PM 87.8 °F 92.6 °F 69.8 °F 55% 29.77 in 3.7 mi ENE 10.4 mph - N/A   Scattered Clouds
4:10 PM 87.8 °F 92.6 °F 69.8 °F 55% 29.77 in 3.7 mi ENE 12.7 mph - N/A   Scattered Clouds
4:40 PM 86.0 °F 90.4 °F 69.8 °F 58% 29.80 in 3.7 mi East 13.8 mph - N/A   Mostly Cloudy
5:10 PM 86.0 °F 90.4 °F 69.8 °F 58% 29.80 in 3.7 mi East 11.5 mph - N/A   Mostly Cloudy
5:30 PM 88 °F - 69 °F 44% 29.79 in 2 mi ENE 11.5 mph - -   Haze
5:40 PM 87.8 °F 92.6 °F 69.8 °F 55% 29.80 in 3.7 mi East 12.7 mph - N/A   Mostly Cloudy
6:10 PM 86.0 °F 91.8 °F 71.6 °F 62% 29.80 in 3.7 mi East 13.8 mph - N/A   Mostly Cloudy
6:40 PM 84.2 °F 89.6 °F 71.6 °F 66% 29.83 in 3.7 mi East 13.8 mph - N/A   Mostly Cloudy
7:10 PM 82.4 °F 87.2 °F 71.6 °F 70% 29.83 in 3.7 mi East 11.5 mph - N/A   Mostly Cloudy
7:40 PM 82.4 °F 87.2 °F 71.6 °F 70% 29.86 in 3.7 mi East 10.4 mph - N/A   Mostly Cloudy
8:10 PM 82.4 °F 87.2 °F 71.6 °F 70% 29.86 in 3.7 mi East 5.8 mph - N/A   Mostly Cloudy
8:30 PM 82 °F - 71 °F 61% 29.86 in 2 mi ENE 5.8 mph - -   Haze
8:40 PM 82.4 °F 87.2 °F 71.6 °F 70% 29.86 in 3.7 mi East 5.8 mph - N/A   Mostly Cloudy
9:10 PM 80.6 °F 84.6 °F 71.6 °F 74% 29.89 in 3.7 mi ESE 4.6 mph - N/A   Mostly Cloudy
9:40 PM 80.6 °F 83.9 °F 69.8 °F 70% 29.89 in 3.7 mi East 6.9 mph - N/A   Mostly Cloudy
10:10 PM 80.6 °F 84.6 °F 71.6 °F 74% 29.89 in 3.7 mi NE 4.6 mph - N/A   Mostly Cloudy
11:10 PM 78.8 °F - 71.6 °F 78% 29.89 in 2.5 mi NE 4.6 mph - N/A   Haze
11:30 PM 79 °F - 72 °F 72% 29.88 in 2 mi ENE 6.9 mph - -   Haze
11:40 PM 78.8 °F - 71.6 °F 78% 29.89 in 2.5 mi ENE 6.9 mph - N/A   Haze